Location: Anjeux
(47.8815°N, 6.2076°E)
Time: 05:27:38
(UTC+00:00)

USA 276 - Pass Details

Date: 05 March 2021
Orbit: 379 x 393 km, 50.0° (Epoch: 05 April)

Event Time Altitude Azimuth Distance (km) Brightness Sun altitude
Exits shadow 03:29:37 - 124° (SE) 1,524 5.5 -26.9°
Enters shadow 04:26:39 -70° 246° (WSW) 12,403 9.7 -17.8°
Maximum altitude 05:04:35 45° 152° (SSE) 550 3.0 -11.5°
